Regional Weather Roundup
Issued by NWS

Home | Current Version | Previous Version | Text Only | Print | Product List | Glossary Off
Versions: 1 2 3 4 5 6 7 8 9 10 11 12 13 14 15 16 17 18 19 20 21 22 23 24 25 26 27 28 29 30 31 32 33 34 35 36 37 38 39 40 41 42 43 44 45 46 47 48 49 50

000
ASUS43 KIND 210409
RWRIN

WEATHER ROUNDUP FOR INDIANA
NATIONAL WEATHER SERVICE INDIANAPOLIS IN
1200 AM EDT FRI JUL 21 2017

NOTE: "FAIR" INDICATES FEW OR NO CLOUDS BELOW 12,000 FEET WITH NO
SIGNIFICANT WEATHER AND/OR OBSTRUCTIONS TO VISIBILITY.

* - STATION DOES NOT REPORT WEATHER SUCH AS PRECIPITATION OR FOG.

+ - STATION NOT QUALITY CONTROLLED BY THE NATIONAL WEATHER SERVICE.
    USE DATA WITH CAUTION...ESPECIALLY DEWPOINT AND RELATIVE
    HUMIDITY OBSERVATIONS.

INZ001>003-010>013-019-020-210500-
NORTHWEST INDIANA

CITY           SKY/WX    TMP DP  RH WIND       PRES   REMARKS
GARY /AIRPORT/ CLEAR     73  70  89 CALM      29.97S
KNOX *+        CLEAR     73  72  94 CALM      29.97R
LA PORTE +     CLEAR     73  72  96 NW3       29.98S
MICHIGAN CITY+ CLEAR     70  70 100 CALM      29.98S
MONTICELLO +   CLOUDY    79  78  96 CALM      29.95F
RENSSELAER +   PTCLDY    79  73  83 NE3       29.97R
VALPARAISO     CLEAR     75  73  93 NE3       29.97F

$$

LMZ046-743>745-210500-
SOUTHERN LAKE MICHIGAN

STATION/POSITION TIME  TEMP    WIND        PRES    WAVE
                       AIR SEA DIR/SP/G            HT
                 (UTC) (F)     (DEG/KT/KT) (MB)    (FT)
BURNS HARBOR     0340   76      70/  6/  6 1015.2S
MICHIGAN CITY    0340   77      70/  3/  4   N/A
5NW MICH CITY    0400   75 74   CALM  /  2   N/A     0

$$

INZ004-005-014>016-021>024-210500-
NORTH CENTRAL INDIANA

CITY           SKY/WX    TMP DP  RH WIND       PRES   REMARKS
GOSHEN         CLEAR     74  70  87 CALM      29.97S
LOGANSPORT +   PTCLDY    77  75  94 CALM      29.97S
PERU/GRISSOM   PTCLDY    79  79 100 S3        29.95F
ROCHESTER +    PTCLDY    79  79 100 CALM      29.97S
SOUTH BEND     CLEAR     71  70  96 CALM      29.98R
WARSAW +       CLEAR     75  73  94 CALM      29.97S

$$

INZ006>009-017-018-025>027-210500-
NORTHEAST INDIANA

CITY           SKY/WX    TMP DP  RH WIND       PRES   REMARKS
ANGOLA *+      MOCLDY    73  66  78 CALM      29.97S VSB 3/4
AUBURN +       CLEAR     77  72  83 CALM      29.97F
FORT WAYNE     MOCLDY    78  74  87 SW6       29.97S
HUNTINGTON +   PTCLDY    77  76  96 CALM      29.97S
KENDALLVILLE + MOCLDY   N/A N/A N/A SW3       29.97F

$$

INZ028-029-035-036-043>045-051>053-210500-
WEST CENTRAL INDIANA

CITY           SKY/WX    TMP DP  RH WIND       PRES   REMARKS
GREENCASTLE +  CLEAR     79  73  83 S3        30.00S
LAFAYETTE      MOCLDY    80  79  96 NE5       29.95S
TERRE HAUTE    CLEAR     82  73  74 S5        29.98S

$$

INZ030>032-037>040-046>048-054>057-064-065-210500-
CENTRAL INDIANA

CITY           SKY/WX    TMP DP  RH WIND       PRES   REMARKS
CP ATTERBURY + CLEAR     77  73  88 CALM      30.01S FOG
FRANKFORT +    CLOUDY    82  79  91 W3        30.00S
INDIANAPOLIS   MOCLDY    82  76  81 SW10      29.98S
-EAGLE CREEK   CLOUDY    83  76  79 MISG      29.98S
KOKOMO +       PTCLDY    79  78  97 S6        29.98F
MARION +       MOCLDY    79  75  89 CALM      29.98F FOG
MT COMFORT *+  MOCLDY    79  75  89 S6        30.00S
SHELBYVILLE    CLEAR     80  74  81 S6        29.99S
ZIONSVILLE +   MOCLDY    79  77  92 S6        29.99S

$$

INZ033-034-041-042-049-050-058-059-210500-
EAST CENTRAL INDIANA

CITY           SKY/WX    TMP DP  RH WIND       PRES   REMARKS
MUNCIE         PTCLDY    83  74  74 S3        29.98F
RICHMOND +     PTCLDY    75  73  94 SW7       30.02S

$$

INZ060-061-067>069-081>083-085>088-210500-
SOUTHWEST INDIANA

CITY           SKY/WX    TMP DP  RH WIND       PRES   REMARKS
EVANSVILLE     PTCLDY    83  73  72 S5        30.01S
HUNTINGBURG *+ PTCLDY    80  74  81 S7        30.02S

$$

INZ062-063-066-070>080-084-089>092-210500-
SOUTH CENTRAL AND SOUTHEAST INDIANA

CITY           SKY/WX    TMP DP  RH WIND       PRES   REMARKS
BEDFORD +      CLEAR     79  72  78 CALM      30.01S
BLOOMINGTON    CLEAR     79  72  79 SW6       30.01R
MADISON *+     CLEAR     79  72  78 S5        30.04F
NORTH VERNON + CLEAR     77  73  88 S6        30.02R
SEYMOUR +      CLEAR     79  75  89 S3        30.00F

$$





USA.gov is the U.S. government's official web portal to all federal, state and local government web resources and services.